This demonstration page uses our WeatherBlox Daily Observations layout. Learn more.

Left ArrowRight Arrow

34.02893, -84.19858

Hourly Observations for November 5, 2019

Temp ( °F °C ) Dew Point ( °F °C ) Humidity (%) Winds ( mph kmh ) Pressure ( in mb ) Visibility ( mi km ) Precip ( " mm )
12:53 am 00:53 Cloudy 54 12.2 40 4.4 59 59 Calm 30.21 1023 10 16 0.00 0.00
1:53 am 01:53 Cloudy 54 12.2 40 4.4 59 59 ENE 6 9 30.21 1023 10 16 0.00 0.00
2:53 am 02:53 Cloudy 54 12.2 40 4.4 59 59 Calm 30.19 1022 10 16 0.00 0.00
3:53 am 03:53 Cloudy 53 11.7 41 5 64 64 VRB 5 7 30.19 1022 10 16 0.00 0.00
4:53 am 04:53 Cloudy 53 11.7 40 4.4 61 61 Calm 30.19 1022 10 16 0.00 0.00
5:53 am 05:53 Cloudy 53 11.7 40 4.4 61 61 E 3 6 30.20 1023 10 16 0.00 0.00
6:18 am 06:18 Cloudy 53 11.7 40 4.4 61 61 VRB 3 6 30.21 1023 10 16 0.00 0.00
6:53 am 06:53 Mostly Cloudy 53 11.7 40 4.4 61 61 VRB 3 6 30.21 1023 10 16 0.00 0.00
7:53 am 07:53 Partly Cloudy 53 11.7 41 5 64 64 Calm 30.23 1024 10 16 0.00 0.00
8:53 am 08:53 Mostly Cloudy with Light Rain 54 12.2 43 6.1 67 67 Calm 30.23 1024 10 16 0.00 0.00
9:51 am 09:51 Cloudy 57 14 43 6 59 59 VRB 3 6 30.23 1024 10 16 0.00 0.00
9:53 am 09:53 Cloudy 57 13.9 43 6.1 60 60 Calm 30.23 1024 10 16 0.00 0.00
10:53 am 10:53 Cloudy 58 14.4 47 8.3 67 67 NNE 5 7 30.23 1024 10 16 0.00 0.00
11:53 am 11:53 Cloudy 60 15.6 47 8.3 62 62 VRB 3 6 30.24 1024 10 16 0.00 0.00
12:53 pm 12:53 Cloudy 63 17.2 50 10 63 63 WNW 5 7 30.21 1023 10 16 0.00 0.00
1:18 pm 13:18 Mostly Cloudy 65 18.3 52 11.1 63 63 N 7 11 30.19 1022 10 16 0.00 0.00
1:53 pm 13:53 Sunny 67 19.4 53 11.7 61 61 NW 12 19 30.18 1022 10 16 0.00 0.00
2:53 pm 14:53 Partly Cloudy 69 20.6 53 11.7 57 57 NNW 7 11 30.18 1022 10 16 0.00 0.00
3:53 pm 15:53 Sunny 68 20 53 11.7 59 59 NW 8 13 30.19 1022 10 16 0.00 0.00
4:53 pm 16:53 Sunny 67 19.4 49 9.4 53 53 NNW 8 13 30.19 1023 10 16 0.00 0.00
5:53 pm 17:53 Clear 62 16.7 47 8.3 58 58 NW 5 7 30.22 1023 10 16 0.00 0.00
6:53 pm 18:53 Clear 58 14.4 48 8.9 70 70 NW 3 6 30.23 1024 10 16 0.00 0.00
7:53 pm 19:53 Clear 56 13.3 48 8.9 75 75 N 3 6 30.24 1024 10 16 0.00 0.00
8:53 pm 20:53 Clear 54 12.2 47 8.3 77 77 N 5 7 30.27 1025 10 16 0.00 0.00
9:53 pm 21:53 Clear 51 10.6 46 7.8 83 83 NNE 5 7 30.29 1026 10 16 0.00 0.00
10:53 pm 22:53 Clear 48 8.9 47 8.3 96 96 Calm 30.29 1026 10 16 0.00 0.00
11:53 pm 23:53 Clear 48 8.9 46 7.8 93 93 Calm 30.29 1026 10 16 0.00 0.00

Powered by AerisWeather